Location: Errabaliem
(16.8108°N, 80.4255°E)
Time: 12:58:35
(UTC+00:00)

Cosmos 405 Rocket - Pass Details

Date: 05 August 2024
Orbit: 448 x 493 km, 81.3° (Epoch: 11 September)

Event Time Altitude Azimuth Distance (km) Brightness Sun altitude
Rises 23:29:30 0° 175° (S) 2,586 6.1 -12.2°
Reaches altitude 10° 23:31:41 10° 169° (SSE) 1,700 5.2 -11.7°
Maximum altitude 23:35:16 46° 95° (E) 670 3.7 -10.9°
Drops below altitude 10° 23:38:49 10° 20° (NNE) 1,683 5.9 -10.1°
Sets 23:40:58 0° 15° (NNE) 2,557 6.8 -9.6°
